QPF
0.00 0.00 0.00 0.00 0.00 0.00 0.00 0.00 0.00 0.00 0.00 0.00 0.00 0.00 0.00 0.00 0.00 0.00 0.00 0.00 0.00 0.00 0.00 0.00 0.00 0.00 0.00 0.00 0.00 0.00 0.00 0.00 0.00 0.00 0.00 0.00 0.00 0.00 0.00 0.00 0.00 0.00 0.00 0.00
0.00 0.00 0.00 0.00 0.00 0.00 0.00 0.00 0.00 0.00 0.00 0.00 0.00 0.00 0.00 0.00 0.00 0.00 0.00 0.00 0.00 0.00 0.00 0.00 0.00 0.00 0.00 0.00 0.00 0.00 0.00 0.00 0.00 0.00 0.00 0.00 0.00 0.00 0.00 0.00 0.00 0.00 0.00 0.00
0.00 0.00 0.00 0.00 0.00 0.00 0.00 0.00 0.00 0.00 0.00 0.00 0.00 0.00 0.00 0.00 0.00 0.00 0.00 0.00 0.00 0.00 0.00 0.00 0.00 0.00 0.00 0.00 0.00 0.00 0.00 0.00 0.00 0.00 0.00 0.00 0.00 0.00 0.00 0.00 0.00 0.00 0.00 0.00
0.00 0.00 0.00 0.00 0.00 0.00 0.00 0.00 0.00 0.00 0.00 0.00 0.00 0.00 0.00 0.00 0.00 0.00 0.00 0.00 0.00 0.00 0.00 0.00 0.00 0.00 0.00 0.00 0.00 0.00 0.00 0.00 0.00 0.00 0.00 0.00 0.00 0.00 0.00 0.00 0.00 0.00 0.00 0.00
0.00 0.00 0.00 0.00 0.00 0.00 0.00 0.00 0.00 0.00 0.00 0.00 0.00 0.00 0.00 0.00 0.00 0.00 0.00 0.00 0.00 0.00 0.00 0.00 0.00 0.00 0.00 0.00 0.00 0.00 0.00 0.00 0.00 0.00 0.00 0.00 0.00 0.00 0.00 0.00 0.00 0.00 0.00 0.00
0.00 0.00 0.00 0.00 0.00 0.00 0.00 0.00 0.00 0.00 0.00 0.00 0.00 0.00 0.00 0.00 0.00 0.00 0.00 0.00 0.00 0.00 0.00 0.00 0.00 0.00 0.00 0.00 0.00 0.00 0.00 0.00 0.00 0.00 0.00 0.00 0.00 0.00 0.00 0.00 0.00 0.00 0.00 0.00
0.00 0.00 0.00 0.00 0.00 0.00 0.00 0.00 0.00 0.00 0.00 0.00 0.00 0.00 0.00 0.00 0.00 0.00 0.00 0.00 0.00 0.00 0.00 0.00 0.00 0.00 0.00 0.00 0.00 0.00 0.00 0.00 0.00 0.00 0.00 0.00 0.00 0.00 0.00 0.00 0.00 0.00 0.00 0.00
0.00 0.00 0.00 0.00 0.00 0.00 0.00 0.00 0.00 0.00 0.00 0.00 0.00 0.00 0.00 0.00 0.00 0.00 0.00 0.00 0.00 0.00 0.00 0.00 0.00 0.00 0.00 0.00 0.00 0.00 0.00 0.00 0.00 0.00 0.00 0.00 0.00 0.00 0.00 0.00 0.00 0.00 0.00 0.00
0.00 0.00 0.00 0.00 0.00 0.00 0.00 0.00 0.00 0.00 0.00 0.00 0.00 0.00 0.00 0.00 0.00 0.00 0.00 0.00 0.00 0.00 0.00 0.00 0.00 0.00 0.00 0.00 0.00 0.00 0.00 0.00 0.00 0.00 0.00 0.00 0.00 0.00 0.00 0.00 0.00 0.00 0.00 0.00
0.00 0.00 0.00 0.00 0.00 0.00 0.00 0.00 0.00 0.00 0.00 0.00 0.00 0.00 0.00 0.00 0.00 0.00 0.00 0.00 0.00 0.00 0.00 0.00 0.00 0.00 0.00 0.00 0.00 0.00 0.00 0.00 0.00 0.00 0.00 0.00 0.00 0.00 0.00 0.00 0.00 0.00 0.00 0.00
0.00 0.00 0.00 0.00 0.00 0.00 0.00 0.00 0.00 0.00 0.00 0.00 0.00 0.00 0.00 0.00 0.00 0.00 0.00 0.00 0.00 0.00 0.00 0.00 0.00 0.00 0.00 0.00 0.00 0.00 0.00 0.00 0.00 0.00 0.00 0.00 0.00 0.00 0.00 0.00 0.00 0.00 0.00 0.00
0.00 0.00 0.00 0.00 0.00 0.00 0.00 0.00 0.00 0.00 0.00 0.00 0.00 0.00 0.00 0.00 0.00 0.00 0.00 0.00 0.00 0.00 0.00 0.00 0.00 0.00 0.00 0.00 0.00 0.00 0.00 0.00 0.00 0.00 0.00 0.00 0.00 0.00 0.00 0.00 0.00 0.00 0.00 0.00
0.00 0.00 0.00 0.00 0.00 0.00 0.00 0.00 0.00 0.00 0.00 0.00 0.00 0.00 0.00 0.00 0.00 0.00 0.00 0.00 0.00 0.00 0.00 0.00 0.00 0.00 0.00 0.00 0.00 0.00 0.00 0.00 0.00 0.00 0.00 0.00 0.00 0.00 0.00 0.00 0.00 0.00 0.00 0.00
0.00 0.00 0.00 0.00 0.00 0.00 0.00 0.00 0.00 0.00 0.00 0.00 0.00 0.00 0.00 0.00 0.00 0.00 0.00 0.00 0.00 0.00 0.00 0.00 0.00 0.00 0.00 0.00 0.00 0.00 0.00 0.00 0.00 0.00 0.00 0.00 0.00 0.00 0.00 0.00 0.00 0.00 0.00 0.00
0.00 0.00 0.00 0.00 0.00 0.00 0.00 0.00 0.00 0.00 0.00 0.00 0.00 0.00 0.00 0.00 0.00 0.00 0.00 0.00 0.00 0.00 0.00 0.00 0.00 0.00 0.00 0.00 0.00 0.00 0.00 0.00 0.00 0.00 0.00 0.00 0.00 0.00 0.00 0.00 0.00 0.00 0.00 0.00
0.00 0.00 0.00 0.00 0.00 0.00 0.00 0.00 0.00 0.00 0.00 0.00 0.00 0.00 0.00 0.00 0.00 0.00 0.00 0.00 0.00 0.00 0.00 0.00 0.00 0.00 0.00 0.00 0.00 0.00 0.00 0.00 0.00 0.00 0.00 0.00 0.00 0.00 0.00 0.00 0.00 0.00 0.00 0.00
0.00 0.00 0.00 0.00 0.00 0.00 0.00 0.00 0.00 0.00 0.00 0.00 0.00 0.00 0.00 0.00 0.00 0.00 0.00 0.00 0.00 0.00 0.00 0.00 0.00 0.00 0.00 0.00 0.00 0.00 0.00 0.00 0.00 0.00 0.00 0.00 0.00 0.00 0.00 0.00 0.00 0.00 0.00 0.00
0.00 0.00 0.00 0.00 0.00 0.00 0.00 0.00 0.00 0.00 0.00 0.00 0.00 0.00 0.00 0.00 0.00 0.00 0.00 0.00 0.00 0.00 0.00 0.00 0.00 0.00 0.00 0.00 0.00 0.00 0.00 0.00 0.00 0.00 0.00 0.00 0.00 0.00 0.00 0.00 0.00 0.00 0.00 0.00
0.00 0.00 0.00 0.00 0.00 0.00 0.00 0.00 0.00 0.00 0.00 0.00 0.00 0.00 0.00 0.00 0.00 0.00 0.00 0.00 0.00 0.00 0.00 0.00 0.00 0.00 0.00 0.00 0.00 0.00 0.00 0.00 0.00 0.00 0.00 0.00 0.00 0.00 0.00 0.00 0.00 0.00 0.00 0.00
0.00 0.00 0.00 0.00 0.00 0.00 0.00 0.00 0.00 0.00 0.00 0.00 0.00 0.00 0.00 0.00 0.00 0.00 0.00 0.00 0.00 0.00 0.00 0.00 0.00 0.00 0.00 0.00 0.00 0.00 0.00 0.00 0.00 0.00 0.00 0.00 0.00 0.00 0.00 0.00 0.00 0.00 0.00 0.00
0.00 0.00 0.00 0.00 0.00 0.00 0.00 0.00 0.00 0.00 0.00 0.00 0.00 0.00 0.00 0.00 0.00 0.00 0.00 0.00 0.00 0.00 0.00 0.00 0.00 0.00 0.00 0.00 0.00 0.00 0.00 0.00 0.00 0.00 0.00 0.00 0.00 0.00 0.00 0.00 0.00 0.00 0.00 0.00
0.00 0.00 0.00 0.00 0.00 0.00 0.00 0.00 0.00 0.00 0.00 0.00 0.00 0.00 0.00 0.00 0.00 0.00 0.00 0.00 0.00 0.00 0.00 0.00 0.00 0.00 0.00 0.00 0.00 0.00 0.00 0.00 0.00 0.00 0.00 0.00 0.00 0.00 0.00 0.00 0.00 0.00 0.00 0.00
0.00 0.00 0.00 0.00 0.00 0.00 0.00 0.00 0.00 0.00 0.00 0.00 0.00 0.00 0.00 0.00 0.00 0.00 0.00 0.00 0.00 0.00 0.00 0.00 0.00 0.00 0.00 0.00 0.00 0.00 0.00 0.00 0.00 0.00 0.00 0.00 0.00 0.00 0.00 0.00 0.00 0.00 0.00 0.00
0.00 0.00 0.00 0.00 0.00 0.00 0.00 0.00 0.00 0.00 0.00 0.00 0.00 0.00 0.00 0.00 0.00 0.00 0.00 0.00 0.00 0.00 0.00 0.00 0.00 0.00 0.00 0.00 0.00 0.00 0.00 0.00 0.00 0.00 0.00 0.00 0.00 0.00 0.00 0.00 0.00 0.00 0.00 0.00
0.00 0.00 0.00 0.00 0.00 0.00 0.00 0.00 0.00 0.00 0.00 0.00 0.00 0.00 0.00 0.00 0.00 0.00 0.00 0.00 0.00 0.00 0.00 0.00 0.00 0.00 0.00 0.00 0.00 0.00 0.00 0.00 0.00 0.00 0.00 0.00 0.00 0.00 0.00 0.00 0.00 0.00 0.00 0.00
0.00 0.00 0.00 0.00 0.00 0.00 0.00 0.00 0.00 0.00 0.00 0.00 0.00 0.00 0.00 0.00 0.00 0.00 0.00 0.00 0.00 0.00 0.00 0.00 0.00 0.00 0.00 0.00 0.00 0.00 0.00 0.00 0.00 0.00 0.00 0.00 0.00 0.00 0.00 0.00 0.00 0.00 0.00 0.00
MSLP
1014.52 1014.49 1013.69 1013.28 1013.31 1013.15 1012.74 1012.80 1013.15 1014.10 1015.11 1014.94 1013.38 1012.19 1011.39 1011.42 1011.66 1011.76 1011.64 1012.10 1012.49 1013.12 1013.92 1014.41 1014.80 1014.96 1015.06 1015.09 1015.26 1015.38 1015.48 1015.47 1015.30 1015.05 1014.71 1014.23 1013.89 1013.76 1013.52 1013.35 1013.09 1012.77 1012.40 1012.05
1014.68 1014.03 1013.96 1014.11 1014.04 1013.69 1013.40 1013.36 1013.63 1014.47 1015.15 1014.94 1013.38 1011.32 1010.38 1010.75 1010.85 1011.02 1011.01 1011.32 1012.01 1012.88 1013.58 1014.08 1014.49 1014.84 1014.95 1015.18 1015.18 1015.27 1015.25 1015.32 1015.28 1015.19 1014.97 1014.69 1014.10 1013.67 1013.35 1013.17 1012.89 1012.61 1012.15 1011.75
1013.86 1014.40 1014.62 1014.51 1014.57 1014.23 1014.13 1014.04 1014.33 1014.82 1014.88 1014.92 1013.75 1010.92 1010.00 1010.33 1010.64 1010.96 1010.86 1011.10 1011.88 1012.42 1013.07 1013.79 1014.30 1014.56 1014.79 1014.85 1015.07 1015.24 1015.34 1015.38 1015.28 1015.17 1014.78 1014.33 1013.83 1013.19 1012.75 1012.36 1012.14 1011.89 1011.66 1011.40
1014.37 1015.04 1015.00 1014.99 1014.90 1014.88 1014.99 1015.15 1015.20 1015.25 1014.96 1014.51 1014.15 1011.64 1009.51 1009.70 1010.03 1010.45 1010.69 1011.19 1011.77 1012.49 1013.34 1013.80 1014.05 1014.35 1014.65 1015.04 1015.24 1015.20 1015.24 1015.20 1015.11 1015.01 1014.56 1014.12 1013.67 1012.93 1012.46 1012.17 1011.83 1011.50 1011.23 1010.91
1014.60 1014.98 1015.31 1015.46 1015.57 1015.57 1015.86 1016.10 1015.88 1015.79 1015.42 1015.22 1014.17 1013.22 1009.05 1009.59 1009.22 1009.36 1009.93 1010.79 1011.49 1012.28 1013.07 1013.52 1014.01 1014.39 1014.74 1014.96 1014.99 1015.17 1015.18 1015.04 1014.88 1014.69 1014.37 1013.84 1013.31 1012.89 1012.44 1012.03 1011.52 1011.09 1010.63 1010.33
1015.17 1015.65 1015.62 1015.87 1016.41 1016.44 1016.64 1016.55 1016.39 1016.11 1015.59 1014.97 1013.91 1013.10 1008.95 1008.43 1008.34 1008.80 1009.56 1010.39 1011.16 1012.05 1012.81 1013.29 1013.77 1014.27 1014.50 1014.85 1015.11 1015.22 1015.06 1014.81 1014.63 1014.37 1013.98 1013.54 1013.05 1012.61 1012.18 1011.65 1011.19 1010.61 1010.06 1009.60
1015.42 1015.57 1016.16 1016.17 1016.64 1017.25 1016.96 1016.56 1016.30 1016.17 1015.61 1014.45 1014.18 1013.27 1009.07 1008.53 1008.75 1009.05 1009.60 1010.06 1010.78 1011.73 1012.53 1013.11 1013.65 1014.20 1014.53 1014.78 1015.04 1015.07 1014.95 1014.63 1014.39 1014.02 1013.58 1013.19 1012.77 1012.38 1011.85 1011.35 1010.83 1010.27 1009.60 1009.04
1014.41 1015.68 1015.93 1016.22 1016.33 1016.26 1016.79 1016.54 1015.78 1015.40 1015.40 1014.48 1014.22 1011.77 1008.60 1008.71 1009.07 1009.53 1010.11 1010.36 1010.79 1011.59 1012.37 1013.07 1013.70 1014.17 1014.48 1014.76 1014.93 1014.82 1014.70 1014.34 1014.10 1013.69 1013.18 1012.83 1012.40 1011.83 1011.34 1010.84 1010.27 1009.61 1008.99 1008.36
1013.92 1015.05 1016.23 1016.66 1016.81 1017.00 1017.12 1017.04 1016.37 1015.98 1017.15 1015.06 1012.22 1010.57 1008.68 1008.60 1008.81 1009.35 1009.81 1010.21 1010.72 1011.32 1012.14 1013.00 1013.60 1014.05 1014.45 1014.60 1014.66 1014.77 1014.56 1014.18 1013.83 1013.36 1012.82 1012.29 1011.86 1011.39 1010.82 1010.21 1009.59 1008.84 1008.16 1007.51
1013.34 1014.81 1016.35 1016.95 1017.24 1017.38 1016.85 1017.06 1016.75 1016.01 1015.39 1014.05 1011.89 1010.61 1008.51 1008.13 1008.23 1008.82 1009.39 1009.81 1010.35 1011.09 1011.89 1012.73 1013.43 1013.95 1014.21 1014.39 1014.62 1014.68 1014.46 1014.04 1013.52 1013.06 1012.54 1012.07 1011.50 1010.98 1010.36 1009.65 1008.83 1008.21 1007.53 1006.89
1013.55 1014.13 1016.65 1016.89 1016.36 1015.87 1017.08 1016.80 1016.41 1015.71 1014.76 1013.48 1011.94 1009.19 1007.44 1007.33 1007.74 1008.56 1008.99 1009.53 1010.12 1010.75 1011.40 1012.36 1013.14 1013.62 1013.97 1014.22 1014.53 1014.57 1014.34 1013.86 1013.32 1012.74 1012.22 1011.65 1010.94 1010.37 1009.72 1009.10 1008.35 1007.61 1006.86 1006.23
1013.76 1014.25 1015.15 1015.52 1015.84 1015.80 1015.80 1015.51 1015.13 1014.89 1015.02 1014.20 1012.63 1009.11 1007.45 1007.54 1008.05 1008.71 1009.24 1009.78 1010.21 1010.72 1011.33 1012.20 1012.89 1013.38 1013.73 1014.07 1014.40 1014.45 1014.28 1013.69 1013.13 1012.58 1011.98 1011.31 1010.67 1010.08 1009.31 1008.68 1007.94 1007.06 1006.15 1005.40
1013.97 1014.24 1014.98 1015.57 1016.03 1015.96 1015.57 1015.04 1014.84 1014.76 1014.35 1013.57 1012.14 1008.88 1007.93 1008.29 1008.75 1009.18 1009.57 1009.81 1010.28 1010.81 1011.45 1012.06 1012.74 1013.30 1013.78 1014.13 1014.40 1014.48 1014.11 1013.56 1013.01 1012.50 1011.86 1011.09 1010.57 1009.87 1009.04 1008.19 1007.34 1006.43 1005.55 1004.54
1014.20 1014.11 1014.13 1013.68 1013.47 1013.50 1014.38 1014.09 1014.30 1014.05 1013.88 1012.51 1010.72 1009.11 1008.18 1008.41 1008.92 1009.42 1009.76 1009.96 1010.38 1010.90 1011.52 1012.07 1012.70 1013.11 1013.58 1014.12 1014.34 1014.41 1013.87 1013.56 1013.05 1012.55 1011.91 1011.23 1010.56 1009.63 1008.79 1007.99 1007.07 1006.20 1005.25 1004.10
1014.47 1014.15 1014.30 1013.78 1013.64 1013.61 1013.39 1013.26 1013.61 1013.66 1012.31 1011.67 1009.88 1009.53 1007.55 1008.49 1009.09 1009.41 1009.92 1010.35 1010.77 1011.02 1011.37 1011.96 1012.41 1012.90 1013.58 1013.99 1014.15 1014.21 1014.01 1013.68 1013.21 1012.66 1011.89 1011.19 1010.43 1009.54 1008.70 1007.83 1007.04 1006.01 1004.93 1003.92
1014.77 1014.41 1014.26 1013.75 1013.70 1013.69 1013.24 1012.69 1012.79 1012.69 1012.15 1011.65 1010.47 1009.15 1008.08 1007.45 1008.65 1009.43 1009.80 1010.34 1010.66 1010.92 1011.16 1011.70 1012.23 1012.84 1013.34 1013.74 1014.01 1014.03 1013.97 1013.64 1013.17 1012.61 1011.81 1011.02 1010.30 1009.43 1008.64 1007.87 1006.99 1005.96 1004.91 1003.97
1015.17 1014.73 1014.77 1014.06 1013.97 1013.77 1012.09 1010.44 1011.03 1010.90 1010.49 1009.94 1009.79 1006.68 1007.38 1007.87 1008.88 1009.37 1009.51 1010.04 1010.10 1010.37 1010.82 1011.44 1011.91 1012.43 1013.10 1013.53 1013.83 1013.77 1013.81 1013.49 1013.04 1012.38 1011.70 1010.94 1010.30 1009.47 1008.71 1007.95 1007.10 1006.18 1005.20 1004.19
1014.86 1014.84 1014.60 1014.57 1014.31 1012.34 1008.57 1008.10 1008.06 1008.15 1007.92 1008.33 1007.69 1006.62 1007.05 1007.81 1008.34 1008.82 1008.86 1009.45 1009.61 1009.90 1010.46 1011.00 1011.54 1012.28 1012.92 1013.34 1013.67 1013.75 1013.57 1013.28 1012.81 1012.14 1011.60 1010.99 1010.35 1009.73 1008.97 1008.19 1007.40 1006.46 1005.56 1004.65
1014.78 1014.71 1014.87 1014.31 1013.07 1010.15 1007.75 1007.82 1007.83 1007.59 1005.93 1005.81 1006.03 1005.49 1006.72 1007.42 1007.98 1007.64 1007.80 1008.58 1008.79 1009.35 1009.69 1010.18 1010.95 1011.93 1012.81 1013.23 1013.43 1013.60 1013.30 1013.13 1012.75 1012.21 1011.79 1011.23 1010.64 1010.16 1009.31 1008.56 1007.78 1006.91 1006.04 1005.28
1014.88 1014.60 1014.11 1014.26 1012.64 1010.29 1007.45 1007.14 1007.29 1007.13 1005.87 1004.43 1004.70 1005.45 1006.30 1007.13 1007.18 1007.08 1007.51 1008.22 1008.70 1009.47 1009.89 1010.16 1010.82 1012.02 1012.68 1012.86 1013.13 1013.12 1012.81 1012.76 1012.48 1012.24 1011.79 1011.31 1010.76 1010.26 1009.71 1009.07 1008.36 1007.65 1006.82 1006.11
1014.75 1014.82 1013.84 1013.30 1011.87 1009.58 1007.14 1007.25 1007.53 1007.00 1005.51 1004.60 1004.95 1005.34 1006.00 1006.27 1006.26 1006.68 1007.29 1007.95 1008.70 1009.19 1009.79 1010.17 1010.70 1011.38 1011.77 1012.31 1012.56 1012.30 1012.15 1012.04 1012.01 1011.97 1011.74 1011.37 1010.83 1010.21 1009.82 1009.14 1008.59 1008.03 1007.47 1006.77
1012.19 1013.00 1013.16 1013.15 1011.83 1009.62 1006.68 1007.68 1007.05 1004.89 1004.67 1004.76 1005.14 1005.43 1005.63 1005.58 1005.91 1006.48 1006.84 1007.38 1007.97 1008.80 1009.70 1009.99 1010.50 1010.66 1011.23 1011.71 1011.81 1011.56 1011.65 1011.50 1011.44 1011.51 1011.49 1011.28 1010.93 1010.37 1009.89 1009.27 1008.64 1008.10 1007.61 1007.23
1010.85 1009.61 1010.01 1009.93 1007.72 1006.17 1005.69 1005.22 1004.93 1005.01 1004.99 1005.03 1005.20 1005.39 1005.63 1005.71 1005.53 1005.61 1005.93 1006.50 1007.00 1007.72 1008.63 1009.30 1009.53 1009.91 1010.35 1010.89 1010.88 1010.85 1010.67 1011.17 1011.14 1010.95 1011.01 1010.98 1010.78 1010.46 1010.03 1009.62 1009.14 1008.57 1008.17 1007.68
1009.48 1009.12 1008.87 1008.69 1005.54 1005.51 1005.56 1005.19 1005.20 1005.05 1005.02 1005.16 1005.33 1005.51 1005.66 1005.35 1005.08 1005.04 1005.54 1005.84 1006.12 1006.75 1007.45 1008.15 1008.79 1009.02 1009.17 1009.60 1009.88 1009.86 1010.13 1010.59 1010.96 1010.66 1010.55 1010.69 1010.93 1010.86 1010.62 1010.19 1009.87 1009.56 1009.25 1008.84
1007.50 1007.61 1007.46 1006.88 1005.05 1004.99 1004.75 1004.46 1004.30 1004.70 1004.95 1005.11 1005.12 1005.21 1005.04 1005.03 1004.75 1004.85 1005.11 1005.14 1005.31 1005.65 1006.22 1006.89 1007.32 1007.54 1007.61 1008.22 1008.78 1009.12 1009.53 1009.92 1010.48 1010.48 1010.10 1010.08 1010.07 1010.31 1010.29 1010.20 1009.98 1009.71 1009.55 1009.44
1005.89 1005.70 1005.57 1004.65 1003.63 1003.66 1003.60 1003.42 1003.77 1004.42 1004.50 1004.55 1004.73 1004.68 1004.35 1004.53 1004.46 1004.36 1004.51 1004.29 1004.43 1004.76 1005.19 1005.82 1006.12 1006.33 1006.45 1007.15 1007.75 1008.22 1008.87 1009.10 1009.54 1010.21 1010.25 1009.92 1010.03 1010.26 1010.37 1010.36 1010.37 1010.20 1009.89 1009.71
Thickness
5584 5591 5602 5610 5608 5602 5608 5610 5612 5601 5583 5588 5609 5616 5621 5626 5623 5618 5621 5617 5614 5607 5600 5594 5588 5582 5577 5571 5565 5561 5556 5552 5549 5548 5547 5548 5546 5542 5539 5534 5531 5528 5529 5528
5580 5591 5590 5585 5586 5593 5597 5601 5604 5591 5576 5582 5601 5618 5628 5619 5618 5619 5622 5618 5612 5603 5596 5589 5582 5574 5568 5562 5557 5552 5549 5544 5541 5538 5536 5534 5534 5532 5528 5523 5520 5517 5516 5514
5589 5581 5570 5578 5579 5587 5587 5594 5589 5588 5582 5571 5585 5626 5626 5618 5613 5612 5615 5615 5606 5600 5594 5585 5575 5567 5561 5556 5549 5544 5538 5534 5530 5526 5525 5524 5522 5522 5520 5517 5512 5508 5505 5502
5574 5558 5567 5573 5577 5579 5583 5571 5570 5570 5584 5596 5577 5606 5632 5618 5615 5611 5608 5604 5599 5592 5581 5574 5568 5562 5554 5546 5540 5536 5530 5525 5520 5515 5514 5511 5508 5508 5505 5501 5499 5495 5491 5489
5571 5556 5559 5566 5568 5564 5568 5553 5557 5557 5566 5562 5574 5576 5638 5606 5618 5618 5611 5602 5596 5587 5577 5570 5561 5552 5546 5539 5534 5527 5522 5517 5511 5505 5500 5498 5495 5492 5489 5485 5485 5482 5480 5477
5538 5536 5550 5555 5538 5542 5539 5544 5543 5544 5554 5571 5566 5569 5632 5625 5622 5614 5608 5600 5592 5581 5572 5563 5555 5547 5542 5534 5526 5519 5513 5508 5502 5495 5489 5484 5482 5479 5476 5473 5471 5469 5468 5466
5533 5536 5531 5536 5540 5530 5536 5548 5568 5568 5564 5585 5538 5552 5615 5613 5605 5605 5602 5597 5589 5577 5568 5560 5551 5542 5534 5525 5517 5510 5503 5498 5490 5484 5478 5473 5469 5465 5463 5461 5459 5456 5456 5456
5551 5548 5531 5531 5541 5552 5537 5540 5570 5577 5579 5577 5524 5568 5615 5598 5591 5588 5584 5584 5580 5570 5560 5551 5541 5533 5525 5516 5509 5502 5495 5488 5480 5473 5468 5462 5458 5457 5455 5452 5449 5449 5446 5444
5540 5540 5507 5510 5515 5521 5521 5530 5525 5502 5445 5534 5574 5580 5597 5591 5589 5586 5583 5577 5573 5567 5556 5545 5535 5527 5518 5511 5502 5492 5485 5478 5471 5465 5461 5456 5451 5448 5446 5444 5442 5442 5439 5437
5539 5522 5498 5496 5501 5502 5514 5511 5531 5523 5553 5558 5570 5557 5597 5596 5595 5585 5575 5577 5572 5564 5551 5539 5528 5520 5511 5502 5492 5483 5474 5468 5463 5457 5452 5448 5444 5440 5438 5436 5436 5433 5429 5425
5519 5527 5486 5491 5506 5525 5498 5510 5501 5523 5531 5566 5567 5591 5591 5599 5592 5578 5580 5576 5569 5560 5551 5536 5524 5514 5504 5495 5483 5473 5465 5459 5454 5450 5445 5442 5439 5435 5433 5430 5429 5426 5421 5414
5506 5505 5501 5506 5493 5497 5505 5518 5522 5554 5529 5505 5517 5570 5579 5587 5581 5574 5571 5563 5559 5550 5544 5530 5517 5508 5499 5487 5474 5464 5455 5450 5446 5442 5438 5435 5432 5428 5427 5425 5422 5419 5414 5406
5490 5496 5495 5493 5489 5484 5497 5508 5506 5480 5499 5495 5548 5584 5567 5565 5560 5561 5557 5559 5550 5542 5535 5526 5513 5502 5490 5477 5464 5453 5447 5442 5438 5434 5431 5429 5424 5422 5421 5420 5417 5412 5407 5401
5477 5476 5498 5539 5535 5516 5499 5507 5501 5506 5518 5527 5546 5565 5577 5568 5549 5554 5552 5551 5541 5532 5522 5514 5506 5496 5484 5469 5455 5443 5438 5433 5429 5426 5423 5420 5417 5418 5417 5415 5412 5407 5400 5397
5473 5485 5463 5480 5488 5492 5505 5504 5494 5491 5524 5548 5564 5530 5574 5544 5542 5540 5533 5531 5525 5523 5517 5509 5501 5490 5476 5462 5449 5435 5428 5424 5421 5417 5416 5414 5412 5414 5413 5410 5406 5403 5399 5394
5455 5468 5457 5476 5466 5470 5481 5500 5492 5496 5514 5500 5525 5531 5561 5568 5554 5534 5528 5522 5521 5518 5511 5503 5493 5483 5470 5456 5441 5429 5422 5417 5416 5412 5412 5411 5409 5409 5408 5405 5402 5399 5396 5392
5441 5453 5454 5485 5454 5458 5488 5501 5503 5503 5505 5520 5520 5563 5544 5540 5533 5527 5527 5522 5524 5519 5510 5499 5490 5480 5466 5451 5435 5426 5419 5415 5413 5412 5411 5409 5408 5406 5404 5401 5399 5395 5393 5390
5440 5442 5445 5454 5436 5484 5537 5521 5527 5531 5539 5515 5528 5540 5538 5527 5523 5517 5521 5520 5518 5513 5506 5496 5488 5475 5461 5446 5430 5420 5416 5414 5412 5413 5410 5408 5406 5404 5402 5397 5396 5393 5392 5389
5431 5440 5423 5451 5463 5497 5536 5506 5510 5514 5553 5545 5535 5550 5545 5530 5529 5542 5521 5515 5518 5512 5506 5500 5489 5472 5456 5441 5429 5418 5416 5412 5410 5410 5407 5403 5401 5399 5399 5396 5395 5392 5390 5388
5416 5426 5449 5406 5460 5490 5532 5505 5496 5510 5543 5548 5548 5543 5536 5525 5554 5553 5517 5507 5508 5497 5492 5489 5480 5464 5449 5441 5429 5422 5419 5413 5411 5408 5404 5401 5399 5396 5394 5394 5394 5390 5387 5386
5403 5404 5430 5427 5448 5467 5506 5489 5485 5524 5549 5532 5528 5532 5524 5535 5537 5519 5504 5503 5497 5494 5486 5481 5472 5465 5455 5443 5432 5429 5422 5419 5414 5408 5404 5402 5400 5398 5395 5395 5393 5392 5388 5386
5424 5418 5421 5410 5430 5464 5483 5476 5504 5533 5521 5523 5516 5519 5520 5529 5523 5507 5507 5504 5500 5491 5478 5477 5471 5466 5456 5443 5438 5435 5428 5421 5416 5412 5408 5405 5402 5401 5398 5397 5396 5395 5394 5391
5437 5453 5443 5454 5478 5487 5489 5502 5506 5502 5515 5516 5516 5513 5512 5515 5522 5521 5518 5511 5505 5496 5487 5477 5475 5470 5460 5449 5446 5444 5438 5424 5418 5417 5412 5409 5406 5403 5401 5399 5397 5398 5396 5395
5412 5426 5439 5447 5499 5481 5478 5488 5488 5494 5500 5502 5503 5505 5504 5513 5518 5514 5509 5506 5504 5497 5489 5479 5472 5469 5468 5459 5451 5450 5441 5430 5421 5420 5418 5414 5409 5405 5402 5401 5398 5396 5394 5393
5428 5429 5433 5443 5478 5477 5479 5486 5496 5493 5492 5492 5496 5498 5503 5506 5506 5506 5503 5502 5502 5499 5491 5483 5479 5477 5475 5467 5458 5452 5444 5436 5428 5424 5422 5419 5417 5411 5408 5404 5401 5399 5396 5394
5420 5437 5457 5474 5487 5494 5499 5493 5489 5484 5490 5495 5495 5498 5497 5496 5501 5502 5499 5502 5501 5497 5491 5484 5483 5480 5478 5469 5463 5456 5447 5441 5435 5428 5424 5423 5418 5413 5409 5406 5401 5399 5398 5396